This demonstration page uses our WeatherBlox Daily Observations layout. Learn more.

Left ArrowRight Arrow

Hourly Observations for August 7, 2016

Temp ( °F °C ) Dew Point ( °F °C ) Humidity (%) Winds ( mph kmh ) Pressure ( in mb ) Visibility ( mi km ) Precip ( " mm )
12:15 am 00:15 Clear 73 23 66 19 78 78 WNW 12 19 29.91 1013 10 16 0.00 0.00
12:35 am 00:35 Clear 73 23 64 18 74 74 WNW 13 20 29.88 1012 10 16 0.00 0.00
12:55 am 00:55 Clear 73 23 64 18 74 74 NW 12 19 29.88 1012 10 16 0.00 0.00
1:15 am 01:15 Clear 73 23 64 18 74 74 NW 8 13 29.88 1012 10 16 0.00 0.00
1:35 am 01:35 Clear 72 22 63 17 73 73 WNW 7 11 29.88 1012 10 16 0.00 0.00
1:55 am 01:55 Clear 72 22 63 17 73 73 NW 8 13 29.88 1012 10 16 0.00 0.00
2:15 am 02:15 Clear 72 22 63 17 73 73 NW 9 15 29.88 1012 10 16 0.00 0.00
2:35 am 02:35 Clear 70 21 63 17 78 78 NW 10 17 29.88 1012 10 16 0.00 0.00
2:55 am 02:55 Clear 72 22 63 17 73 73 NW 9 15 29.91 1013 10 16 0.00 0.00
3:15 am 03:15 Clear 72 22 63 17 73 73 WNW 6 9 29.91 1013 10 16 0.00 0.00
3:35 am 03:35 Clear 72 22 63 17 73 73 NW 6 9 29.91 1013 10 16 0.00 0.00
3:55 am 03:55 Clear 72 22 63 17 73 73 NW 8 13 29.91 1013 10 16 0.00 0.00
4:15 am 04:15 Clear 70 21 63 17 78 78 NW 3 6 29.91 1013 10 16 0.00 0.00
4:35 am 04:35 Clear 70 21 63 17 78 78 NNW 3 6 29.91 1013 10 16 0.00 0.00
4:55 am 04:55 Clear 70 21 63 17 78 78 NNW 9 15 29.91 1013 10 16 0.00 0.00
5:15 am 05:15 Clear 68 20 63 17 83 83 NNW 7 11 29.91 1013 10 16 0.00 0.00
5:35 am 05:35 Clear 70 21 63 17 78 78 NW 6 9 29.91 1013 10 16 0.00 0.00
5:55 am 05:55 Clear 68 20 63 17 83 83 NNW 7 11 29.91 1013 10 16 0.00 0.00
6:15 am 06:15 Clear 70 21 61 16 73 73 NW 8 13 29.94 1014 10 16 0.00 0.00
6:35 am 06:35 Sunny 68 20 61 16 78 78 NNW 7 11 29.94 1014 10 16 0.00 0.00
6:55 am 06:55 Sunny 68 20 63 17 83 83 NW 6 9 29.94 1014 10 16 0.00 0.00
7:15 am 07:15 Sunny 70 21 63 17 78 78 NW 5 7 29.94 1014 10 16 0.00 0.00
7:35 am 07:35 Sunny 70 21 63 17 78 78 N 6 9 29.97 1015 10 16 0.00 0.00
7:55 am 07:55 Sunny 72 22 64 18 78 78 NNW 6 9 29.97 1015 10 16 0.00 0.00
8:15 am 08:15 Sunny 73 23 64 18 74 74 NW 8 13 29.97 1015 10 16 0.00 0.00
8:35 am 08:35 Sunny 75 24 64 18 69 69 NNW 10 17 29.97 1015 10 16 0.00 0.00
8:55 am 08:55 Sunny 77 25 63 17 61 61 NNW 9 15 29.97 1015 10 16 0.00 0.00
9:15 am 09:15 Sunny 77 25 63 17 61 61 NW 12 19 29.97 1015 10 16 0.00 0.00
9:35 am 09:35 Sunny 79 26 64 18 61 61 NNW 9 15 29.97 1015 10 16 0.00 0.00
9:55 am 09:55 Sunny 79 26 64 18 61 61 N 7 11 29.97 1015 10 16 0.00 0.00
10:15 am 10:15 Sunny 79 26 64 18 61 61 NW 9 15 29.97 1015 10 16 0.00 0.00
10:35 am 10:35 Sunny 81 27 64 18 58 58 NNW 8 13 29.97 1015 10 16 0.00 0.00
10:55 am 10:55 Sunny 81 27 64 18 58 58 Calm 29.97 1015 10 16 0.00 0.00
11:15 am 11:15 Sunny 82 28 64 18 55 55 N 3 6 29.97 1015 10 16 0.00 0.00
11:35 am 11:35 Sunny 82 28 64 18 55 55 W 5 7 30.00 1016 10 16 0.00 0.00
11:55 am 11:55 Sunny 82 28 63 17 51 51 E 3 6 29.97 1015 10 16 0.00 0.00
12:15 pm 12:15 Sunny 82 28 63 17 51 51 NW 12 19 29.97 1015 10 16 0.00 0.00
12:35 pm 12:35 Partly Cloudy 84 29 63 17 48 48 NW 8 13 29.97 1015 10 16 0.00 0.00
12:55 pm 12:55 Partly Cloudy 86 30 63 17 46 46 WNW 7 11 29.94 1014 10 16 0.00 0.00
1:15 pm 13:15 Partly Cloudy 86 30 63 17 46 46 W 7 11 29.94 1014 10 16 0.00 0.00
1:35 pm 13:35 Mostly Cloudy 86 30 61 16 43 43 Calm 29.94 1014 10 16 0.00 0.00
1:55 pm 13:55 Mostly Cloudy with Nearby Thunderstorms 86 30 61 16 43 43 NW 3 6 29.94 1014 10 16 0.00 0.00
2:15 pm 14:15 Partly Cloudy 86 30 59 15 40 40 NNW 5 7 29.94 1014 10 16 0.00 0.00
2:35 pm 14:35 Sunny 86 30 59 15 40 40 NNW 8 13 29.94 1014 10 16 0.00 0.00
2:55 pm 14:55 Sunny 86 30 59 15 40 40 WNW 7 11 29.94 1014 10 16 0.00 0.00
3:15 pm 15:15 Sunny 88 31 61 16 40 40 NW 9 15 29.94 1014 10 16 0.00 0.00
3:35 pm 15:35 Sunny 88 31 61 16 40 40 NNW 8 13 29.94 1014 10 16 0.00 0.00
3:55 pm 15:55 Sunny 88 31 61 16 40 40 WNW 10 17 29.94 1014 10 16 0.00 0.00
4:15 pm 16:15 Sunny 88 31 61 16 40 40 W 6 9 29.94 1014 10 16 0.00 0.00
4:35 pm 16:35 Sunny 88 31 59 15 38 38 W 7 11 29.94 1014 10 16 0.00 0.00
4:55 pm 16:55 Sunny 88 31 59 15 38 38 NW 12 19 29.94 1014 10 16 0.00 0.00
5:15 pm 17:15 Sunny 86 30 59 15 40 40 Calm 29.94 1014 10 16 0.00 0.00
5:35 pm 17:35 Sunny 88 31 61 16 40 40 WNW 8 13 29.94 1014 10 16 0.00 0.00
5:55 pm 17:55 Sunny 86 30 61 16 43 43 NW 5 7 29.94 1014 10 16 0.00 0.00
6:15 pm 18:15 Sunny 86 30 61 16 43 43 W 7 11 29.94 1014 10 16 0.00 0.00
6:35 pm 18:35 Sunny 86 30 59 15 40 40 WNW 3 6 29.91 1013 10 16 0.00 0.00
6:55 pm 18:55 Sunny 86 30 61 16 43 43 W 7 11 29.91 1013 10 16 0.00 0.00
7:15 pm 19:15 Sunny 86 30 61 16 43 43 W 3 6 29.94 1014 10 16 0.00 0.00
7:35 pm 19:35 Sunny 86 30 61 16 43 43 WSW 5 7 29.94 1014 10 16 0.00 0.00
7:55 pm 19:55 Sunny 82 28 63 17 51 51 WSW 5 7 29.97 1015 10 16 0.00 0.00
8:15 pm 20:15 Sunny 81 27 63 17 54 54 WSW 5 7 29.97 1015 10 16 0.00 0.00
8:35 pm 20:35 Clear 79 26 64 18 61 61 WSW 3 6 29.97 1015 10 16 0.00 0.00
8:55 pm 20:55 Clear 77 25 66 19 69 69 SW 3 6 29.97 1015 10 16 0.00 0.00
9:15 pm 21:15 Clear 73 23 66 19 78 78 WSW 3 6 30.00 1016 10 16 0.00 0.00
9:35 pm 21:35 Clear 73 23 68 20 83 83 SW 3 6 30.00 1016 10 16 0.00 0.00
9:55 pm 21:55 Clear 73 23 66 19 78 78 WSW 3 6 30.00 1016 10 16 0.00 0.00
10:15 pm 22:15 Clear 72 22 68 20 88 88 W 6 9 30.00 1016 10 16 0.00 0.00
10:35 pm 22:35 Clear 72 22 68 20 88 88 SW 3 6 30.00 1016 10 16 0.00 0.00
10:55 pm 22:55 Clear 72 22 66 19 83 83 WSW 5 7 30.00 1016 10 16 0.00 0.00
11:15 pm 23:15 Clear 72 22 66 19 83 83 WSW 5 7 30.00 1016 10 16 0.00 0.00
11:35 pm 23:35 Clear 70 21 68 20 94 94 W 3 6 30.00 1016 10 16 0.00 0.00
11:55 pm 23:55 Clear 72 22 66 19 83 83 W 6 9 30.00 1016 10 16 0.00 0.00

Powered by AerisWeather